Weather History for KRKR - May, 2013

Change the Weather History Date:

Sunday, May 5, 2013

  Actual Average (KFSM) Record (KFSM)
Temperature  
Mean Temperature 48 °F 67 °F  
Max Temperature 60 °F 78 °F 93 °F (2014)
Min Temperature 35 °F 56 °F 39 °F (2013)
Degree Days  
Heating Degree Days 18    
Cooling Degree Days 0 4  
Month to date cooling degree days 16  
Year to date cooling degree days 82  
Moisture  
Dew Point 44 °F    
Average Humidity 80    
Maximum Humidity 100    
Minimum Humidity 59    
Precipitation  
Precipitation 0.01 in 0.17 in 3.05 in (1960)
Month to date precipitation 0.88  
Year to date precipitation 14.60  
Sea Level Pressure  
Sea Level Pressure 30.07 in    
Wind  
Wind Speed 3 mph (NW)    
Max Wind Speed 13 mph    
Max Gust Speed 20 mph    
Visibility 10 miles    
Events      
T = Trace of Precipitation, MM = Missing Value Source: NWS Daily Summary

Daily Weather History Graph

Daily Weather History Graph

Search for Another Location

Airport or City:

Trip Planner

Search our weather history database for the weather conditions in past years. The results will help you decide how hot, cold, wet, or windy it might be!

Date:

Astronomy

May. 05, 2013 Rise Set
Actual Time 6:23 AM CDT 8:07 PM CDT
Civil Twilight 5:55 AM CDT 8:34 PM CDT
Nautical Twilight 5:22 AM CDT 9:08 PM CDT
Astronomical Twilight 4:48 AM CDT 9:43 PM CDT
Moon 3:44 AM CDT (5/5) 4:16 PM CDT (5/5)
Length of Visible Light 14h 38m
Length of Day
13h 44m
Waning Crescent, 18% of the Moon is Illuminated
May 5
Waning Crescent
May 9
New
May 17
First Quarter
May 24
Full
May 31
Last Quarter

Hourly Weather History & Observations

Time (CDT) Temp. Windchill Dew Point Humidity Pressure Visibility Wind Dir Wind Speed Gust Speed Precip Events Conditions
12:15 AM 42.8 °F - 41.0 °F 93% 30.02 in 10.0 mi Calm Calm - N/A   Scattered Clouds
12:35 AM 42.8 °F 41.1 °F 41.0 °F 93% 30.03 in 10.0 mi NNW 3.5 mph - N/A   Clear
12:55 AM 42.8 °F 41.1 °F 41.0 °F 93% 30.03 in 10.0 mi NNW 3.5 mph - N/A   Scattered Clouds
1:15 AM 42.8 °F - 41.0 °F 93% 30.03 in 10.0 mi Calm Calm - N/A   Scattered Clouds
1:35 AM 42.8 °F - 41.0 °F 93% 30.03 in 10.0 mi Calm Calm - N/A   Scattered Clouds
1:55 AM 42.8 °F - 41.0 °F 93% 30.03 in 10.0 mi Calm Calm - N/A   Mostly Cloudy
2:15 AM 42.8 °F - 41.0 °F 93% 30.03 in 10.0 mi Calm Calm - N/A   Mostly Cloudy
2:35 AM 42.8 °F - 41.0 °F 93% 30.03 in 10.0 mi Calm Calm - N/A   Scattered Clouds
2:55 AM 41.0 °F - 41.0 °F 100% 30.03 in 10.0 mi Calm Calm - N/A   Mostly Cloudy
3:15 AM 42.8 °F 40.1 °F 41.0 °F 93% 30.03 in 10.0 mi NNW 4.6 mph - N/A   Overcast
3:35 AM 42.8 °F - 41.0 °F 93% 30.03 in 10.0 mi Calm Calm - N/A   Overcast
3:55 AM 42.8 °F - 39.2 °F 87% 30.03 in 10.0 mi Calm Calm - N/A   Scattered Clouds
4:15 AM 42.8 °F - 39.2 °F 87% 30.03 in 10.0 mi Calm Calm - N/A   Scattered Clouds
4:35 AM 41.0 °F - 39.2 °F 93% 30.04 in 10.0 mi Calm Calm - N/A   Clear
4:55 AM 37.4 °F - 37.4 °F 100% 30.05 in 10.0 mi Calm Calm - N/A   Clear
5:15 AM 37.4 °F - 37.4 °F 100% 30.05 in 10.0 mi Calm Calm - N/A   Scattered Clouds
5:35 AM 37.4 °F - 37.4 °F 100% 30.05 in 10.0 mi Calm Calm - N/A   Scattered Clouds
5:55 AM 37.4 °F - 37.4 °F 100% 30.05 in 10.0 mi Calm Calm - N/A   Clear
6:15 AM 37.4 °F - 37.4 °F 100% 30.06 in 7.0 mi Calm Calm - N/A   Clear
6:35 AM 35.6 °F - 35.6 °F 100% 30.06 in 5.0 mi Calm Calm - N/A   Clear
6:55 AM 35.6 °F - 35.6 °F 100% 30.07 in 7.0 mi Calm Calm - N/A   Clear
7:15 AM 37.4 °F - 37.4 °F 100% 30.08 in 10.0 mi Calm Calm - N/A   Clear
7:35 AM 41.0 °F - 41.0 °F 100% 30.09 in 10.0 mi Calm Calm - N/A   Clear
7:55 AM 41.0 °F - 41.0 °F 100% 30.10 in 10.0 mi Calm Calm - N/A   Clear
8:15 AM 42.8 °F - 42.8 °F 100% 30.10 in 10.0 mi Calm Calm - N/A   Clear
8:35 AM 44.6 °F - 42.8 °F 93% 30.11 in 10.0 mi Calm Calm - N/A   Clear
8:55 AM 48.2 °F - 42.8 °F 82% 30.11 in 10.0 mi North 5.8 mph - N/A   Clear
9:15 AM 51.8 °F - 44.6 °F 76% 30.11 in 10.0 mi North 4.6 mph - N/A   Clear
9:35 AM 51.8 °F - 42.8 °F 71% 30.12 in 10.0 mi NNW 6.9 mph - N/A   Clear
9:55 AM 51.8 °F - 44.6 °F 76% 30.12 in 10.0 mi NNW 5.8 mph - N/A   Clear
10:15 AM 51.8 °F - 42.8 °F 71% 30.13 in 10.0 mi North 10.4 mph - N/A   Clear
10:35 AM 53.6 °F - 42.8 °F 67% 30.13 in 10.0 mi North 9.2 mph - N/A   Scattered Clouds
10:55 AM 53.6 °F - 42.8 °F 67% 30.13 in 10.0 mi NW 9.2 mph - 0.01 in   Mostly Cloudy
11:15 AM 55.4 °F - 44.6 °F 67% 30.12 in 10.0 mi North 8.1 mph 18.4 mph N/A   Mostly Cloudy
11:35 AM 55.4 °F - 44.6 °F 67% 30.13 in 10.0 mi WNW 9.2 mph - N/A   Mostly Cloudy
11:55 AM 53.6 °F - 42.8 °F 67% 30.12 in 10.0 mi NW 8.1 mph - N/A   Overcast
12:15 PM 55.4 °F - 44.6 °F 67% 30.11 in 10.0 mi North 5.8 mph 17.3 mph N/A   Mostly Cloudy
12:35 PM 57.2 °F - 44.6 °F 63% 30.11 in 10.0 mi North 6.9 mph - N/A   Mostly Cloudy
12:55 PM 59.0 °F - 46.4 °F 63% 30.10 in 10.0 mi North 12.7 mph 19.6 mph N/A   Mostly Cloudy
1:15 PM 59.0 °F - 44.6 °F 59% 30.09 in 10.0 mi North 5.8 mph - N/A   Scattered Clouds
1:35 PM 60.8 °F - 46.4 °F 59% 30.09 in 10.0 mi NW 10.4 mph 16.1 mph N/A   Scattered Clouds
1:55 PM 59.0 °F - 44.6 °F 59% 30.08 in 10.0 mi NW 3.5 mph - N/A   Mostly Cloudy
2:15 PM 59.0 °F - 44.6 °F 59% 30.08 in 10.0 mi North 5.8 mph - N/A   Mostly Cloudy
2:35 PM 60.8 °F - 46.4 °F 59% 30.08 in 10.0 mi Calm Calm - N/A   Mostly Cloudy
2:55 PM 60.8 °F - 46.4 °F 59% 30.08 in 10.0 mi WNW 5.8 mph 9.2 mph N/A   Mostly Cloudy
3:15 PM 60.8 °F - 46.4 °F 59% 30.07 in 10.0 mi WNW 11.5 mph 16.1 mph N/A   Mostly Cloudy
3:35 PM 60.8 °F - 50.0 °F 68% 30.07 in 10.0 mi West 8.1 mph 17.3 mph N/A   Mostly Cloudy
3:55 PM 60.8 °F - 48.2 °F 63% 30.06 in 10.0 mi NW 9.2 mph 16.1 mph N/A   Mostly Cloudy
4:15 PM 60.8 °F - 50.0 °F 68% 30.06 in 10.0 mi NW 10.4 mph 17.3 mph N/A   Mostly Cloudy
4:35 PM 60.8 °F - 50.0 °F 68% 30.05 in 10.0 mi NNW 12.7 mph 19.6 mph N/A   Overcast
4:55 PM 60.8 °F - 50.0 °F 68% 30.05 in 10.0 mi NW 10.4 mph - N/A   Overcast
5:15 PM 60.8 °F - 50.0 °F 68% 30.05 in 10.0 mi NW 5.8 mph 16.1 mph N/A   Overcast
5:35 PM 60.8 °F - 50.0 °F 68% 30.05 in 10.0 mi WNW 9.2 mph 16.1 mph N/A   Mostly Cloudy
5:55 PM 60.8 °F - 50.0 °F 68% 30.05 in 10.0 mi WNW 10.4 mph - N/A   Mostly Cloudy
6:15 PM 60.8 °F - 50.0 °F 68% 30.06 in 10.0 mi NW 9.2 mph 18.4 mph N/A   Scattered Clouds
6:35 PM 60.8 °F - 50.0 °F 68% 30.06 in 10.0 mi NNW 9.2 mph - N/A   Clear
7:15 PM 59.0 °F - 48.2 °F 67% 30.06 in 10.0 mi NW 6.9 mph - N/A   Mostly Cloudy
7:35 PM 59.0 °F - 50.0 °F 72% 30.06 in 10.0 mi NW 4.6 mph - N/A   Overcast
7:55 PM 59.0 °F - 50.0 °F 72% 30.06 in 10.0 mi NW 8.1 mph - N/A   Overcast
8:15 PM 57.2 °F - 48.2 °F 72% 30.07 in 10.0 mi NW 4.6 mph - N/A   Overcast
8:35 PM 55.4 °F - 46.4 °F 72% 30.07 in 10.0 mi NW 3.5 mph - N/A   Scattered Clouds
8:55 PM 55.4 °F - 48.2 °F 77% 30.07 in 10.0 mi WNW 5.8 mph - N/A   Scattered Clouds
9:15 PM 55.4 °F - 48.2 °F 77% 30.07 in 10.0 mi WNW 3.5 mph - N/A   Clear
9:55 PM 53.6 °F - 48.2 °F 82% 30.07 in 10.0 mi Calm Calm - N/A   Clear
10:15 PM 55.4 °F - 50.0 °F 82% 30.08 in 10.0 mi Calm Calm - N/A   Scattered Clouds
10:35 PM 53.6 °F - 48.2 °F 82% 30.08 in 10.0 mi Calm Calm - N/A   Clear
10:55 PM 53.6 °F - 50.0 °F 88% 30.08 in 10.0 mi Calm Calm - N/A   Clear
11:15 PM 53.6 °F - 50.0 °F 88% 30.08 in 10.0 mi Calm Calm - N/A   Mostly Cloudy
11:35 PM 53.6 °F - 50.0 °F 88% 30.08 in 10.0 mi Calm Calm - N/A   Overcast
11:55 PM 51.8 °F - 50.0 °F 94% 30.08 in 10.0 mi Calm Calm - N/A   Mostly Cloudy